Weather in Otrada

Russia / Oryol Oblast     52°30′51″N   36°18′38″E
temp.,
°C
wind,
m/s
gust,
m/s
humid.,
%
clouds,
%
prec.,
mm/h
press.,
hPa
HPBL,
m
17 october, sun
sun1700:00+4sw389310 0.0 1018158
03:00+4wsw33965 0.0 101858
06:00+3w2297100 0.0 101837
09:00+5w2391100 0.0 1018126
12:00+9w346370 0.0 1018590
15:00+11w45545 0.0 10161066
18:00+7w347314 0.0 101774
21:00+7w366799 0.0 1017198
18 october, mon
mon1800:00+7w4869100 0.0 1017530
03:00+7wsw3758100 0.0 1016259
06:00+6w4965100 0.0 1015450
09:00+6wsw5107218 0.0 1015530
12:00+8w6970100 0.0 1015807
15:00+8w6865100 0.0 10151108
18:00+7w5772100 0.1 1015974
21:00+6wnw4785100 0.7 1015900
19 october, tue
tue1900:00+5wnw3787100 0.1 1016348
03:00+4nw3883100 0.1 1016302
06:00+2wnw48858 0.0 1017227
09:00+2nw58836 0.0 1018351
12:00+4nnw5776100 0.0 10191047
15:00+4wnw6869100 0.1 1019936
18:00+3wnw6108386 0.1 1021766
21:00+2nw5118755 0.8 1021708
20 october, wed
wed2000:00+1nw5108865 0.0 1023509
03:00−1nw48938 0.0 1024309
06:00−2wnw399194 0.0 1025248
09:000nw3676100 0.0 1026355
12:00+4wnw345696 0.0 1025809
15:00+5wsw354799 0.0 1024938
18:00+4ssw3755100 0.0 1024208
21:00+5ssw51161100 0.0 1021490
21 october, thu
thu2100:00+6ssw61459100 0.0 1019515
03:00+5ssw71666100 0.8 1017590
06:00+7ssw81779100 1.4 1015560
09:00+8sw81675100 1.4 1014520
12:00+12sw81767100 0.0 1013723
15:00+14sw9176488 0.0 1011759
18:00+12sw91770100 0.0 1010656
21:00+11sw91874100 0.0 1009690